Date,TemperatureHighF,TemperatureAvgF,TemperatureLowF,DewpointHighF,DewpointAvgF,DewpointLowF,HumidityHigh,HumidityAvg,HumidityLow,PressureMaxIn,PressureMinIn,WindSpeedMaxMPH,WindSpeedAvgMPH,GustSpeedMaxMPH,PrecipitationSumIn
2013-1-1,29,19,7,23,13,4,92,79,62,25.85,25.76,15,7,20,0.00
2013-1-2,29,24,18,23,18,13,88,78,59,25.99,25.80,19,10,27,0.00
2013-1-3,33,19,4,16,10,1,86,69,46,26.00,25.88,12,5,15,0.00
2013-1-4,44,26,15,25,14,6,73,60,42,25.88,25.77,10,6,15,0.00
2013-1-5,37,26,15,23,17,8,81,68,55,25.98,25.77,20,8,25,0.00
2013-1-6,46,28,11,23,15,5,75,61,34,25.96,25.65,17,7,21,0.00
2013-1-7,45,32,22,24,19,14,81,61,38,25.77,25.55,13,5,19,0.00
2013-1-8,46,34,24,24,21,16,78,60,41,25.93,25.53,18,6,28,0.00
2013-1-9,57,38,22,28,23,18,83,58,24,25.95,25.75,20,10,26,0.00
2013-1-10,52,37,28,41,30,20,97,77,58,25.75,25.26,21,10,30,0.00
2013-1-11,31,19,5,31,17,1,97,91,81,25.57,25.18,19,8,26,0.00
2013-1-12,11,6,-1,4,0,-5,88,80,70,25.78,25.56,20,7,23,0.00
2013-1-13,16,6,-2,7,1,-7,87,80,67,25.88,25.77,9,4,13,0.00
2013-1-14,18,3,-7,5,-4,-12,84,73,50,25.91,25.82,12,6,15,0.00
2013-1-15,32,18,-4,26,10,-10,86,73,60,25.82,25.72,18,10,28,0.00
2013-1-16,46,35,28,28,22,17,79,62,38,26.03,25.74,21,11,34,0.00
2013-1-17,50,33,21,21,16,13,73,53,28,26.11,25.86,14,7,19,0.00
2013-1-18,55,38,23,17,14,12,68,42,20,25.86,25.72,20,9,27,0.00
2013-1-19,51,34,24,22,17,13,88,54,23,25.95,25.73,17,6,23,0.00
2013-1-20,31,23,12,22,17,9,89,78,58,26.04,25.85,18,5,22,0.00
2013-1-21,41,22,7,20,14,4,89,73,42,25.98,25.76,8,2,13,0.00
2013-1-22,53,34,17,17,12,8,85,46,17,25.85,25.74,15,6,22,0.00
2013-1-23,38,27,16,18,14,9,90,62,36,25.94,25.81,16,6,18,0.00
2013-1-24,59,35,16,29,20,14,92,61,26,25.88,25.65,24,10,32,0.00
2013-1-25,57,37,21,30,23,15,80,60,30,25.89,25.77,15,4,18,0.00
2013-1-26,58,42,27,32,27,21,86,60,32,25.77,25.55,17,6,24,0.00
2013-1-27,55,42,28,43,35,26,95,80,53,25.54,25.46,9,4,12,0.03
2013-1-28,31,28,25,30,27,24,97,96,91,25.53,25.46,16,6,17,0.00
2013-1-29,30,22,10,24,18,6,96,83,65,25.71,25.47,20,8,27,0.00
2013-1-30,33,19,0,24,12,-4,89,76,58,25.71,25.52,17,7,24,0.00
2013-1-31,27,20,9,21,14,5,91,78,64,25.89,25.62,16,7,23,0.00
2013-2-1,44,33,26,30,25,20,92,75,49,25.87,25.72,16,7,19,0.00
2013-2-2,46,35,24,27,22,18,86,64,33,25.98,25.88,22,10,33,0.00
2013-2-3,54,36,20,23,18,16,84,54,22,25.94,25.61,15,6,21,0.00
2013-2-4,52,34,19,20,17,14,80,55,23,25.70,25.57,16,5,24,0.00
2013-2-5,50,37,26,26,22,17,75,56,33,25.78,25.59,11,5,14,0.00
2013-2-6,49,38,32,29,25,22,84,60,35,25.81,25.55,12,4,16,0.00
2013-2-7,50,35,26,28,19,13,88,57,24,25.87,25.79,13,6,17,0.00
2013-2-8,50,35,24,23,19,15,83,55,32,25.79,25.52,14,6,20,0.00
2013-2-9,32,24,21,26,22,19,94,89,72,25.52,25.34,19,9,25,0.00
2013-2-10,29,24,13,26,20,8,94,86,73,25.76,25.31,25,13,33,0.00
2013-2-11,32,15,5,14,8,1,86,72,44,25.82,25.73,15,6,16,0.00
2013-2-12,41,23,6,21,12,1,80,63,42,25.75,25.71,14,9,20,0.00
2013-2-13,48,33,22,31,22,14,91,64,38,25.74,25.59,22,10,32,0.00
2013-2-14,32,26,12,26,18,9,89,72,45,26.00,25.73,18,8,29,0.00
2013-2-15,26,16,11,19,11,6,83,79,74,26.02,25.96,9,5,12,0.00
2013-2-21,22,17,13,17,14,11,92,87,79,25.65,25.60,12,4,14,0.00
2013-2-22,35,23,12,24,17,9,92,80,58,25.67,25.57,9,4,16,0.00
2013-2-23,46,30,12,28,20,7,84,67,44,25.57,25.41,13,4,17,0.00
2013-2-24,33,29,25,29,26,23,94,89,76,25.83,25.52,20,8,21,0.00
2013-2-25,38,27,15,22,17,11,89,70,42,25.82,25.59,10,4,13,0.00
2013-2-26,39,28,15,27,21,11,91,74,52,25.82,25.56,20,8,23,0.00
2013-2-27,39,30,23,27,20,15,92,70,42,25.92,25.82,19,9,26,0.00
2013-2-28,42,30,18,23,17,12,81,61,38,25.93,25.88,16,6,18,0.00
2013-3-1,44,34,20,31,24,17,90,69,39,26.00,25.93,12,5,19,0.00
2013-3-2,59,45,36,31,29,27,76,55,31,25.94,25.73,17,8,21,0.00
2013-3-3,62,47,32,32,29,25,76,52,26,25.72,25.38,20,10,32,0.00
2013-3-4,35,28,18,25,14,5,79,56,35,25.92,25.48,23,12,40,0.00
2013-3-5,42,25,13,13,8,5,75,53,25,26.01,25.91,14,6,23,0.00
2013-3-6,50,32,17,25,19,12,86,63,34,25.90,25.63,26,12,27,0.00
2013-3-7,66,42,22,32,24,20,91,58,19,25.81,25.63,25,6,26,0.00
2013-3-8,46,34,23,31,27,21,92,77,55,25.82,25.52,15,5,19,0.00
2013-3-9,38,30,24,31,24,14,95,80,48,25.79,25.46,28,14,35,0.00
2013-3-10,39,27,20,20,15,11,85,64,33,25.87,25.76,15,7,20,0.00
2013-3-11,45,35,20,29,21,12,86,58,31,25.86,25.66,22,8,26,0.00
2013-3-12,42,32,22,20,14,8,80,50,29,26.00,25.86,17,7,23,0.00
2013-3-13,64,43,24,29,24,12,87,52,23,25.94,25.84,17,7,23,0.00
2013-3-14,70,54,39,31,26,23,60,38,18,25.95,25.78,14,6,19,0.00
2013-3-15,71,55,41,30,26,20,56,35,15,25.78,25.61,19,8,27,0.00
2013-3-16,49,38,26,31,28,22,88,69,46,25.79,25.63,22,9,29,0.00
2013-3-17,57,37,24,31,24,7,94,66,17,25.66,25.27,34,16,46,0.00
2013-3-18,40,30,21,21,15,10,87,57,30,25.70,25.58,20,8,27,0.00
2013-3-19,41,30,15,27,19,10,88,67,36,26.06,25.69,20,6,25,0.00
2013-3-20,50,32,13,31,17,9,86,60,28,26.06,25.51,20,9,29,0.00
2013-3-21,43,34,24,35,24,19,93,69,50,25.56,25.38,19,12,25,0.00
2013-3-22,45,32,20,26,20,10,91,66,24,25.69,25.55,15,6,19,0.00
2013-3-23,29,22,15,25,15,10,90,75,54,25.90,25.69,22,10,23,0.00
2013-3-24,27,17,8,15,9,3,90,72,37,25.95,25.82,22,8,30,0.00
2013-3-25,36,20,1,13,7,-2,89,63,33,25.98,25.91,13,5,18,0.00
2013-3-26,53,33,12,24,12,5,80,49,18,25.91,25.68,17,6,19,0.00
2013-3-27,56,41,20,29,17,10,85,45,17,25.85,25.77,11,4,16,0.00
2013-3-28,65,47,31,33,27,23,84,51,23,25.86,25.78,11,5,14,0.00
2013-3-29,69,50,34,32,28,24,71,46,22,25.86,25.71,17,4,23,0.00
2013-3-30,52,41,32,42,34,27,95,78,57,25.89,25.81,14,4,22,0.08
2013-3-31,64,42,26,39,27,18,95,63,22,25.91,25.69,20,8,29,0.01
2013-4-1,54,38,24,27,24,19,90,63,31,25.94,25.83,10,4,16,0.00
2013-4-2,59,42,25,30,26,20,84,56,25,25.87,25.82,12,4,18,0.00
2013-4-3,67,46,25,36,30,23,97,60,20,25.86,25.74,20,7,20,0.00
2013-4-4,67,47,29,34,31,27,91,59,26,25.90,25.73,17,6,22,0.00
2013-4-5,75,58,39,39,30,24,70,40,16,25.73,25.44,26,10,39,0.00
2013-4-6,62,52,36,37,30,27,83,46,27,25.63,25.57,15,6,25,0.00
2013-4-7,66,56,44,41,30,24,81,40,23,25.57,25.42,18,8,29,0.00
2013-4-8,61,47,29,41,33,28,96,61,33,25.57,25.41,29,11,33,0.00
2013-4-10,19,17,16,17,15,14,93,93,92,25.75,25.66,6,3,8,0.00
2013-4-11,33,22,9,32,21,7,97,93,90,25.65,25.51,11,6,15,0.00
2013-4-12,42,33,24,34,28,23,95,81,63,25.74,25.61,12,6,18,0.01
2013-4-13,50,37,23,39,32,21,94,83,54,25.74,25.26,15,6,24,0.00
2013-4-14,42,36,25,37,27,20,90,72,45,25.55,25.23,25,11,40,0.00
2013-4-15,34,27,20,24,18,15,85,70,49,25.81,25.50,15,5,20,0.00
2013-4-16,28,26,24,27,25,23,96,93,84,25.86,25.78,18,11,24,0.00
2013-4-17,26,25,24,25,24,22,96,95,94,25.86,25.78,17,12,18,0.00
2013-5-15,78,70,58,42,40,37,56,36,23,25.77,25.66,24,10,29,0.00
2013-5-16,80,63,56,57,48,39,84,60,28,25.73,25.55,29,5,38,0.00
2013-5-17,83,66,52,58,53,39,90,66,25,25.65,25.51,26,8,35,0.04
2013-5-18,76,62,52,63,57,45,97,83,50,25.66,25.51,21,6,33,0.25
2013-5-19,62,54,48,54,50,47,97,89,70,25.59,25.49,19,6,28,0.25
2013-5-20,54,49,46,48,44,42,94,81,70,25.65,25.52,30,15,41,0.00
2013-5-21,55,49,43,45,42,38,94,77,59,25.73,25.65,24,11,37,0.01
2013-5-22,56,49,44,48,44,40,95,84,70,25.90,25.71,20,7,20,0.00
2013-5-23,68,56,45,49,45,38,95,69,45,25.93,25.80,29,17,37,0.00
2013-5-24,77,64,53,58,54,48,96,73,48,25.80,25.71,32,13,38,0.00
2013-5-25,83,68,56,59,55,42,89,65,27,25.77,25.63,20,9,27,0.00
2013-5-26,75,63,54,63,56,50,96,79,62,25.72,25.59,20,7,38,0.00
2013-5-27,79,63,52,62,56,46,98,82,40,25.63,25.48,20,9,30,0.46
2013-5-28,74,59,46,55,51,44,95,76,46,25.62,25.43,28,8,33,0.22
2013-5-29,71,58,50,55,51,46,95,79,46,25.51,25.34,25,6,36,0.30
2013-5-30,66,54,47,49,45,41,90,73,46,25.52,25.36,25,12,33,0.02
2013-5-31,57,49,43,45,43,40,92,80,55,25.70,25.51,28,14,41,0.14
2013-6-1,63,52,45,46,43,39,89,73,43,25.94,25.71,20,9,27,0.01
2013-6-2,77,59,39,48,43,36,91,60,30,25.94,25.63,21,10,33,0.00
2013-6-3,81,63,49,58,50,41,90,64,26,25.70,25.50,24,11,29,0.00
2013-6-4,68,56,46,48,43,37,92,64,43,25.95,25.72,16,6,20,0.08
2013-6-5,64,52,39,45,42,36,95,70,44,25.97,25.88,12,5,18,0.00
2013-6-6,73,58,42,48,44,40,94,65,34,25.89,25.81,11,3,14,0.00
2013-6-7,82,64,47,57,48,43,86,62,28,25.87,25.55,16,5,23,0.04
2013-6-8,74,62,52,54,49,40,93,66,30,25.76,25.49,22,9,28,0.03
2013-6-9,83,66,48,52,46,43,82,53,24,25.79,25.67,11,4,15,0.00
2013-6-10,96,74,56,60,50,40,80,47,17,25.69,25.59,20,7,30,0.00
2013-6-11,87,72,59,68,60,55,94,71,38,25.68,25.57,15,7,21,0.01
2013-6-12,78,65,53,63,54,50,95,70,43,25.92,25.71,26,7,26,0.01
2013-6-13,79,63,49,57,52,47,92,69,44,25.94,25.67,24,10,30,0.00
2013-6-14,85,73,63,57,52,45,79,51,27,25.79,25.63,15,7,23,0.00
2013-6-15,78,65,51,55,50,44,93,61,36,25.86,25.76,17,7,23,0.00
2013-6-16,88,69,57,61,55,49,92,66,28,25.87,25.75,27,8,34,0.00
2013-6-17,78,66,54,56,50,43,91,61,30,25.97,25.83,26,9,28,0.15
2013-6-18,82,66,52,56,53,49,94,67,39,25.89,25.72,24,8,31,0.42
2013-6-19,83,70,55,65,59,53,95,72,53,25.76,25.53,28,15,38,0.00
2013-6-20,82,73,62,64,58,49,92,64,32,25.69,25.54,23,7,37,0.00
2013-6-21,81,69,60,68,61,47,95,76,41,25.74,25.58,30,10,42,0.01
2013-6-22,76,65,53,62,56,51,92,73,56,25.76,25.60,24,8,31,0.04
2013-6-23,78,66,52,61,52,45,94,64,33,25.78,25.64,19,6,22,0.00
2013-6-24,89,73,60,61,54,48,90,54,28,25.65,25.52,31,10,37,0.00
2013-6-25,86,77,65,61,51,44,75,43,24,25.73,25.58,21,9,28,0.00
2013-6-26,97,78,59,57,51,42,81,46,16,25.79,25.73,11,4,17,0.00
2013-6-27,93,76,60,57,53,46,86,50,21,26.00,25.80,13,6,17,0.00
2013-6-28,88,74,58,58,53,48,86,52,27,26.02,25.92,18,5,23,0.00
2013-6-29,85,72,57,56,52,44,80,52,32,25.98,25.89,15,5,20,0.00
2013-6-30,81,68,53,51,48,45,75,52,32,25.99,25.92,14,4,17,0.00
2013-7-1,76,66,58,59,55,51,90,69,44,26.04,25.98,19,6,19,0.06
2013-7-2,80,67,52,53,48,45,85,55,32,26.02,25.89,17,7,22,0.00
2013-7-3,88,72,54,50,46,42,75,44,21,25.90,25.71,17,7,22,0.00
2013-7-4,89,73,53,55,48,44,75,45,21,25.75,25.68,22,6,32,0.00
2013-7-5,86,73,60,59,56,51,83,57,34,25.70,25.60,13,4,18,0.00
2013-7-6,91,76,62,60,56,50,83,55,26,25.77,25.60,17,5,22,0.00
2013-7-7,87,72,60,66,59,54,90,67,35,25.84,25.75,18,9,29,0.18
2013-7-8,91,71,60,65,62,55,97,77,30,25.84,25.75,16,7,25,0.01
2013-7-9,89,74,57,63,59,54,94,65,30,25.95,25.81,14,5,19,0.00
2013-7-10,90,75,60,61,57,51,91,57,28,25.98,25.82,18,7,25,0.00
2013-7-11,95,78,61,61,59,56,92,55,27,25.88,25.66,27,12,35,0.00
2013-7-12,88,78,69,66,59,55,90,56,34,25.87,25.65,15,7,21,0.06
2013-7-13,89,76,64,67,64,61,96,69,39,25.86,25.76,14,5,19,0.05
2013-7-14,78,68,62,64,62,60,98,81,60,25.99,25.82,17,9,26,0.00
2013-7-15,83,71,62,66,59,49,99,71,31,25.98,25.86,24,10,32,0.05
2013-7-16,84,71,56,59,55,51,87,60,37,26.02,25.91,19,10,27,0.00
2013-7-17,89,74,59,61,58,52,95,61,29,26.02,25.88,21,12,33,0.00
2013-7-18,97,79,62,61,58,53,85,52,23,25.90,25.77,12,6,20,0.00
2013-7-19,87,76,66,61,55,50,78,50,30,25.94,25.81,18,7,21,0.00
2013-7-20,88,72,58,60,56,43,92,61,25,25.83,25.68,19,8,26,0.00
2013-7-21,90,74,57,61,56,40,94,57,21,25.79,25.63,25,10,40,0.07
2013-7-22,87,74,59,62,58,51,84,59,41,25.81,25.69,18,8,21,0.00
2013-7-23,89,72,58,61,57,52,90,63,30,25.91,25.72,21,7,31,0.00
2013-7-24,86,67,60,64,59,55,93,77,37,25.94,25.82,16,5,22,0.38
2013-7-25,83,68,56,58,55,50,92,66,34,25.97,25.83,16,6,20,0.00
2013-7-26,78,65,54,56,52,47,90,67,41,26.10,25.93,19,7,23,0.00
2013-7-27,69,60,51,54,52,48,89,75,59,25.97,25.83,17,8,23,0.00
2013-7-28,67,60,54,58,56,52,95,85,73,25.83,25.73,18,11,25,0.01
2013-7-29,79,65,57,63,59,56,97,83,53,25.90,25.70,18,4,27,0.03
2013-7-30,91,74,61,61,56,46,91,59,21,25.97,25.84,17,6,28,0.00
2013-7-31,86,72,61,62,58,53,91,67,34,26.03,25.91,15,5,25,0.03
2013-8-1,87,71,59,64,60,55,96,73,40,25.94,25.68,20,7,30,0.34
2013-8-2,77,68,59,65,61,56,97,80,62,25.86,25.72,20,6,20,0.00
2013-8-3,73,66,58,65,62,57,97,89,73,25.95,25.83,24,13,32,0.10
2013-8-4,94,73,61,64,59,48,97,67,24,25.90,25.76,21,9,36,0.00
2013-8-5,87,74,62,64,58,53,97,63,32,25.85,25.73,14,6,19,0.00
2013-8-6,84,70,60,63,58,55,94,70,39,25.84,25.68,15,7,32,0.24
2013-8-7,78,67,58,60,57,54,91,71,49,25.87,25.77,19,6,33,0.00
2013-8-8,80,67,56,62,57,53,94,72,39,25.90,25.83,13,4,19,0.00
2013-8-9,82,66,55,58,56,51,89,73,35,25.98,25.88,16,5,18,0.51
2013-8-10,90,71,56,59,56,50,93,62,25,25.99,25.82,12,5,22,0.00
2013-8-11,83,69,57,63,57,52,95,68,34,25.97,25.86,13,4,23,0.79
2013-8-12,82,69,56,62,57,53,95,70,38,25.94,25.88,9,3,15,0.00
2013-8-13,84,68,55,58,54,49,87,64,33,26.01,25.88,18,6,27,0.00
2013-8-14,87,68,53,60,54,50,95,67,29,25.97,25.82,13,4,16,0.27
2013-8-15,81,69,60,61,56,51,95,67,36,25.93,25.81,15,5,18,0.00
2013-8-16,83,69,60,63,60,57,97,76,41,25.93,25.86,14,7,19,0.00
2013-8-17,84,70,59,66,62,58,98,80,48,25.90,25.80,15,8,22,0.00
2013-8-18,90,72,63,67,63,56,98,77,39,25.84,25.78,16,7,20,0.00
2013-8-19,93,75,58,61,57,52,93,57,27,25.85,25.74,12,4,19,0.00
2013-8-20,97,80,62,61,55,46,78,48,18,25.79,25.69,15,4,22,0.00
2013-8-21,85,74,62,61,57,54,86,59,36,25.90,25.76,18,7,25,0.00
2013-8-22,82,69,59,63,59,53,96,73,37,25.97,25.88,17,7,19,0.00
2013-8-23,91,75,64,65,61,54,97,68,29,25.91,25.68,22,8,25,0.00
2013-8-24,96,79,62,63,53,47,74,45,20,25.79,25.72,11,4,13,0.00
2013-8-25,96,81,67,58,53,50,66,40,21,25.86,25.79,10,3,13,0.00
2013-8-26,93,80,64,59,55,52,70,43,27,25.86,25.80,15,7,25,0.00
2013-8-27,98,83,68,63,54,50,75,40,20,25.86,25.77,10,3,18,0.04
2013-8-28,96,81,67,66,57,46,83,49,19,25.86,25.80,13,4,17,0.00
2013-8-29,96,80,63,61,54,49,75,45,22,25.89,25.82,15,5,16,0.00
2013-8-30,96,76,65,66,61,54,87,64,25,25.92,25.77,21,6,33,0.00
2013-8-31,93,74,59,61,55,47,91,58,27,25.89,25.77,17,7,21,0.00
2013-9-1,85,68,52,47,44,41,75,45,22,25.95,25.86,12,3,13,0.00
2013-9-2,91,74,57,58,52,46,71,48,26,25.90,25.77,17,7,31,0.00
2013-9-3,96,80,67,59,55,51,66,45,22,25.84,25.76,12,4,16,0.00
2013-9-4,94,76,61,65,59,55,88,58,29,25.93,25.82,11,4,20,0.00
2013-9-5,94,78,63,60,57,53,83,52,25,25.95,25.83,12,5,22,0.00
2013-9-6,100,81,64,62,55,48,79,47,18,25.87,25.78,15,4,34,0.01
2013-9-7,95,81,67,61,57,51,77,48,22,25.87,25.76,16,6,22,0.00
2013-9-8,95,78,62,65,59,43,93,59,17,25.78,25.61,13,5,21,0.00
2013-9-9,84,70,62,63,60,54,94,73,39,25.81,25.65,12,4,18,0.07
2013-9-10,73,66,61,63,60,55,96,83,64,25.95,25.81,6,2,8,0.01
2013-9-11,74,66,58,58,55,51,91,71,46,26.02,25.96,10,3,12,0.00
2013-9-12,77,67,58,58,52,46,88,62,34,26.07,25.99,16,6,25,0.00
2013-9-13,62,58,55,58,55,51,99,90,72,26.00,25.75,22,13,29,0.08
2013-9-14,83,66,55,62,58,53,99,78,36,25.81,25.65,20,7,25,0.03
2013-9-15,63,58,48,58,53,47,97,85,69,26.04,25.80,19,9,20,0.00
2013-9-16,60,55,51,55,52,50,97,91,80,26.03,25.80,23,14,27,0.00
2013-9-17,88,70,52,58,53,45,98,61,22,25.79,25.59,20,6,23,0.00
2013-9-18,88,72,56,54,49,41,89,49,20,25.65,25.55,17,6,25,0.00
2013-9-19,68,57,44,50,41,34,86,58,29,25.94,25.65,12,5,21,0.03
2013-9-20,75,57,39,43,36,27,88,53,18,25.95,25.78,9,3,13,0.00
2013-9-21,88,67,47,48,40,29,82,45,12,25.77,25.55,14,5,21,0.00
2013-9-22,87,67,54,56,52,46,98,64,24,25.56,25.36,36,6,47,1.02
2013-9-23,56,52,45,56,52,45,99,98,94,25.78,25.36,22,6,22,0.68
2013-9-24,73,58,45,52,44,37,99,64,28,25.86,25.66,13,6,16,0.00
2013-9-25,76,61,49,51,45,40,74,57,31,25.67,25.31,23,11,31,0.00
2013-9-26,70,58,45,50,46,43,91,68,43,25.59,25.37,17,8,22,0.00
2013-9-27,49,43,40,44,40,37,95,89,80,25.74,25.58,16,8,25,0.24
2013-9-28,65,49,36,40,36,32,91,64,31,25.82,25.72,22,8,26,0.00
2013-9-29,77,60,44,40,36,29,76,46,17,25.80,25.59,22,8,32,0.00
2013-9-30,82,66,50,45,39,34,80,40,20,25.67,25.51,24,8,33,0.00
2013-10-1,71,56,40,45,37,29,88,54,25,25.83,25.68,15,5,26,0.00
2013-10-2,65,54,45,48,39,35,92,61,34,25.77,25.68,17,7,22,0.00
2013-10-3,49,46,43,45,42,37,98,87,68,25.70,25.64,23,10,27,0.03
2013-10-4,43,33,29,42,33,29,98,98,98,25.81,25.61,24,15,32,0.06
2013-10-5,40,33,28,34,29,27,98,86,63,25.87,25.75,30,14,36,0.01
2013-10-6,58,45,35,40,34,28,82,67,49,25.92,25.87,15,7,23,0.00
2013-10-7,75,54,35,44,38,32,88,58,26,25.89,25.65,13,5,16,0.00
2013-10-8,78,59,45,43,38,30,84,51,18,25.64,25.55,13,5,18,0.00
2013-10-9,59,48,40,46,40,36,86,75,56,25.75,25.61,16,8,20,0.00
2013-10-10,58,48,37,51,43,35,96,83,66,25.72,25.21,20,4,33,0.47
2013-10-11,52,46,35,50,39,32,94,79,56,25.82,25.06,37,13,45,0.01
2013-10-12,56,43,31,40,34,28,92,73,47,25.94,25.82,13,6,17,0.00
2013-10-13,61,50,37,47,39,34,90,69,50,25.94,25.73,29,13,38,0.00
2013-10-14,53,43,34,52,41,30,97,92,84,25.84,25.59,26,11,29,0.16
2013-10-15,38,34,32,33,30,28,95,85,74,25.98,25.85,22,9,28,0.00
2013-10-16,54,40,28,33,27,21,92,66,27,25.91,25.73,12,5,18,0.00
2013-10-17,43,37,30,33,29,25,88,73,57,25.87,25.75,15,6,18,0.00
2013-10-18,42,34,27,31,26,22,90,74,47,25.87,25.78,19,6,25,0.00
2013-10-19,61,47,32,31,29,27,80,53,27,25.77,25.63,15,7,24,0.00
2013-10-20,50,42,30,39,34,28,95,73,53,25.84,25.63,20,7,29,0.00
2013-10-21,54,43,31,39,34,29,91,73,51,25.84,25.77,18,7,27,0.00
2013-10-22,58,48,39,39,38,36,90,69,49,25.87,25.80,15,6,21,0.00
2013-10-23,60,46,33,41,37,31,95,74,41,26.00,25.82,17,6,20,0.00
2013-10-24,58,43,31,39,36,30,96,78,48,26.04,25.96,10,2,11,0.00
2013-10-25,69,46,28,44,35,27,97,72,29,25.97,25.80,11,3,15,0.00
2013-10-26,66,48,33,38,33,30,88,61,28,26.04,25.81,12,3,13,0.00
2013-10-27,71,52,37,36,31,24,82,50,18,25.80,25.60,20,6,22,0.00
2013-10-28,38,29,27,33,28,26,97,94,83,25.94,25.76,24,12,25,0.00
2013-10-29,31,30,28,31,29,28,98,97,97,25.86,25.73,11,1,11,0.00
2013-10-30,51,38,31,42,34,31,99,87,53,25.74,25.55,10,2,12,0.02
2013-10-31,52,42,32,37,32,28,87,67,41,25.58,25.50,22,9,35,0.00
2013-11-1,50,41,30,35,27,21,86,61,36,25.91,25.58,22,10,34,0.00
2013-11-2,59,42,28,29,25,21,78,54,28,25.93,25.50,21,8,28,0.00
2013-11-3,65,43,32,36,30,23,94,65,22,25.64,25.38,18,6,27,0.16
2013-11-4,45,36,29,33,28,22,96,75,42,25.79,25.63,12,3,15,0.02
2013-11-5,34,28,18,31,27,16,96,94,85,25.87,25.74,11,5,15,0.00
2013-11-6,45,30,12,31,24,10,95,78,55,26.05,25.83,12,5,20,0.10
2013-11-7,53,40,28,36,30,24,86,71,49,26.08,25.69,15,6,21,0.00
2013-11-8,58,43,34,38,30,26,76,61,40,25.78,25.55,19,6,26,0.00
2013-11-9,52,40,30,30,28,26,82,63,40,26.03,25.79,11,5,13,0.00
2013-11-10,62,43,29,37,31,25,91,66,34,26.00,25.86,12,5,15,0.00
2013-11-11,38,26,21,32,24,19,95,91,76,26.33,25.86,17,6,21,0.00
2013-11-12,50,33,19,37,28,18,97,86,57,26.31,25.99,10,5,15,0.00
2013-11-13,68,47,30,33,30,25,81,56,23,25.99,25.72,11,4,16,0.00
2013-11-14,55,44,35,39,34,31,95,70,42,25.81,25.57,16,5,25,0.00
2013-11-15,60,46,33,37,30,24,90,61,26,25.56,25.25,14,6,26,0.00
2013-11-16,51,42,31,28,23,19,74,51,31,25.25,25.16,32,10,39,0.00
2013-11-17,45,36,26,27,17,7,79,49,21,25.82,25.25,28,11,38,0.00
2013-11-18,58,38,20,28,22,14,82,55,29,25.84,25.73,11,3,16,0.00
2013-11-19,61,45,32,33,26,20,68,50,28,25.72,25.46,23,7,30,0.00
2013-11-20,59,40,16,35,28,12,93,66,32,25.90,25.52,26,7,32,0.00
2013-11-21,16,10,3,11,7,-1,87,85,82,26.24,25.91,18,7,20,0.00
2013-11-22,29,11,-5,15,3,-8,90,72,54,26.27,26.18,9,4,13,0.00
2013-11-23,32,19,9,16,9,1,88,67,48,26.29,26.08,9,4,10,0.00
2013-11-24,33,23,13,26,18,9,87,80,71,26.05,25.72,18,6,21,0.00
2013-11-25,43,32,24,30,25,18,88,75,55,26.01,25.78,10,3,11,0.00
2013-11-26,38,29,21,23,20,17,87,72,49,26.10,25.95,9,3,14,0.00
2013-11-27,54,35,19,34,25,17,91,70,41,25.94,25.73,10,4,16,0.00
2013-11-28,40,30,21,27,23,18,88,77,58,25.99,25.88,15,5,20,0.00
2013-11-29,54,35,22,34,25,19,92,70,37,25.86,25.80,12,4,16,0.00
2013-11-30,54,39,30,30,27,24,84,64,37,25.87,25.83,12,4,15,0.00
2013-12-1,52,41,29,31,28,24,82,63,41,25.84,25.53,18,7,21,0.00
2013-12-2,56,47,36,33,30,28,75,54,36,25.53,25.32,25,10,36,0.00
2013-12-3,44,22,9,29,19,7,96,88,55,25.58,25.31,14,7,19,0.00
2013-12-4,9,2,-5,7,-1,-10,90,86,78,25.81,25.52,19,10,26,0.00
2013-12-5,6,-4,-13,-4,-10,-18,81,74,62,25.92,25.80,12,4,18,0.00
2013-12-6,-2,-8,-13,-9,-13,-18,84,79,72,26.02,25.91,8,3,8,0.00
2013-12-7,8,-2,-14,3,-6,-19,87,83,78,26.00,25.66,19,9,24,0.00
2013-12-8,9,3,0,2,-3,-9,87,75,60,25.77,25.56,14,6,19,0.00
2013-12-9,17,6,-9,9,-1,-14,83,72,58,25.79,25.67,28,10,28,0.00
2013-12-10,30,20,9,21,12,2,91,72,61,26.01,25.69,15,7,22,0.00
2013-12-11,29,14,0,21,9,-3,91,82,69,26.04,25.96,9,4,12,0.00
2013-12-12,42,28,14,27,18,8,76,67,50,25.97,25.67,15,4,19,0.00
2013-12-13,36,28,21,25,20,13,90,73,55,25.86,25.59,12,5,18,0.00
2013-12-14,38,31,25,29,25,20,93,78,65,25.93,25.83,18,8,21,0.00
2013-12-15,42,36,27,30,26,21,77,69,58,25.84,25.73,23,12,31,0.00
2013-12-16,48,37,29,31,25,19,72,62,52,25.93,25.76,13,5,20,0.00
2013-12-17,48,35,23,31,24,18,82,66,48,26.00,25.68,11,5,14,0.00
2013-12-18,51,41,30,32,26,24,79,56,42,25.67,25.52,16,5,24,0.00
2013-12-19,32,19,5,25,16,2,95,89,72,25.72,25.51,17,8,19,0.00
2013-12-20,28,16,4,19,11,1,89,80,61,25.69,25.43,7,2,11,0.00
2013-12-21,28,19,11,22,14,7,87,80,68,25.62,25.38,10,3,15,0.00
2013-12-22,30,17,-2,21,13,-6,91,84,66,25.98,25.63,15,5,21,0.00
2013-12-23,30,13,-4,26,9,-8,90,84,78,25.99,25.74,10,3,13,0.00
2013-12-24,38,32,22,33,27,18,95,84,76,25.96,25.64,21,8,25,0.00
2013-12-25,37,27,21,24,19,16,83,72,56,26.06,25.85,13,7,18,0.00
2013-12-26,44,34,26,28,22,15,74,63,53,25.95,25.82,13,7,19,0.00
2013-12-27,54,39,29,34,26,21,75,60,43,25.93,25.73,14,6,18,0.00
2013-12-28,43,28,7,30,20,1,84,73,55,26.00,25.59,21,9,26,0.00
2013-12-29,35,20,5,20,11,1,85,70,48,26.00,25.65,9,4,13,0.00
2013-12-30,41,32,26,28,23,19,86,71,52,25.87,25.66,21,8,29,0.00
2013-12-31,50,38,26,30,26,20,81,63,43,25.76,25.65,16,6,21,0.00
2014-1-1,28,24,20,26,21,17,94,91,82,25.98,25.69,13,5,14,0.00
2014-1-2,26,20,16,19,16,14,91,82,73,25.94,25.91,10,6,16,0.00